GW0692 Weather Reports


Display with metric or nautical units.
time (UTC)temp
F
wind
direction
speed
MPH
gust
MPH
rain 1hr
in
rain 24hr
in
rain mn
in
humidity
%
barometer
mb
20260901031830 57 224 4.0 5.0 0.00 0.21 0.21 92 1026.6
20260901031326 56 242 3.0 3.0 0.00 0.21 0.21 93 1026.6
20260901030825 56 241 5.0 5.0 0.00 0.21 0.21 93 1026.8
20260901030321 55 245 7.0 7.0 0.07 0.21 0.21 93 1026.4
20260901025820 55 255 3.0 3.0 0.12 0.21 0.21 94 1026.1
20260901025315 56 239 3.0 3.0 0.12 0.20 0.20 94 1026.5
20260901024810 56 288 7.0 9.0 0.12 0.19 0.19 94 1026.9
20260901024309 56 255 6.0 7.0 0.12 0.18 0.18 93 1026.4
20260901023807 56 262 4.0 7.0 0.07 0.17 0.17 93 1026.6
20260901023302 56 270 4.0 5.0 0.05 0.16 0.16 94 1026.6
20260901022757 56 255 5.0 7.0 0.17 0.16 0.16 93 1026.3
20260901022253 56 257 5.0 7.0 0.24 0.15 0.15 92 1026.4
20260901021748 57 257 3.0 3.0 0.19 0.13 0.13 88 1026.4
20260901021244 58 247 7.0 7.0 0.07 0.11 0.11 88 1026.8
20260901020739 58 244 6.0 9.0 0.05 0.10 0.10 89 1026.5
20260901020234 59 238 8.0 10.0 0.05 0.10 0.10 87 1026.6
20260901015729 60 221 5.0 7.0 0.00 0.09 0.09 88 1026.5
20260901015225 60 228 7.0 10.0 0.00 0.09 0.09 87 1026.5
20260901014724 61 192 5.0 7.0 0.00 0.09 0.09 87 1026.4
20260901014221 61 241 0.0 0.0 0.00 0.09 0.09 85 1026.4
20260901013716 61 238 2.0 2.0 0.00 0.09 0.09 87 1026.4
20260901013211 60 241 0.0 0.0 0.00 0.09 0.09 86 1026.4
20260901012707 60 243 1.0 2.0 0.00 0.09 0.09 83 1025.9
20260901012207 60 254 0.0 0.0 0.00 0.09 0.09 85 1025.9
20260901011703 60 257 1.0 2.0 0.00 0.09 0.09 88 1025.6
20260901011202 60 246 0.0 0.0 0.00 0.09 0.09 90 1025.9
20260901010656 60 221 0.0 0.0 0.00 0.09 0.09 93 1025.9
20260901010151 60 217 1.0 2.0 0.00 0.09 0.09 94 1025.6
20260901005650 60 243 2.0 2.0 0.00 0.09 0.09 94 1025.4
20260901005146 59 257 2.0 2.0 0.00 0.09 0.09 93 1025.4
20260901004645 59 267 3.0 3.0 0.00 0.09 0.09 93 1025.1
20260901004140 58 253 2.0 2.0 0.00 0.09 0.09 94 1025.1
20260901003635 59 229 2.0 3.0 0.00 0.09 0.09 94 1025.3
20260901003133 58 280 2.0 2.0 0.00 0.09 0.09 94 1025.1
20260901002628 58 263 3.0 7.0 0.00 0.09 0.09 95 1024.9
20260901002122 58 252 3.0 3.0 0.00 0.09 0.09 95 1024.6
20260901001617 58 253 5.0 7.0 0.07 0.09 0.09 95 1024.8
20260901001113 58 272 3.0 3.0 0.38 0.09 0.09 96 1025.0
20260901000608 58 260 3.0 5.0 0.35 0.08 0.08 94 1025.1
20260901000103 58 262 3.0 3.0 0.05 0.03 0.03 92 1025.8
20260831235556 58 253 4.0 5.0 0.00 0.02 0.02 89 1026.0
20260831235052 59 251 5.0 5.0 0.07 0.02 0.02 89 1025.9
20260831234546 59 263 3.0 3.0 0.07 0.02 0.02 87 1026.0
20260831234043 60 244 7.0 9.0 0.05 0.01 0.01 87 1025.5
20260831233543 61 234 1.0 2.0 0.05 0.01 0.01 86 1025.4
20260831233038 61 231 2.0 3.0 0.00 0.00 0.00 83 1025.4
20260831232533 62 208 4.0 5.0 0.00 0.00 0.00 83 1025.4
20260831232029 63 263 5.0 5.0 0.00 0.00 0.00 79 1025.6
20260831231526 66 275 5.0 7.0 0.00 0.00 0.00 71 1025.9
20260831231021 69 117 11.0 15.0 0.00 0.00 0.00 55 1025.6
20260831230516 69 87 11.0 14.0 0.00 0.00 0.00 56 1025.1
20260831230011 70 115 8.0 12.0 0.00 0.00 0.00 54 1025.0
20260831225506 71 64 8.0 10.0 0.00 0.00 0.00 50 1025.0
20260831225006 72 100 12.0 17.0 0.00 0.00 0.00 47 1024.6
20260831224501 73 125 6.0 9.0 0.00 0.00 0.00 45 1024.5
20260831223956 75 100 10.0 12.0 0.00 0.00 0.00 44 1024.3
20260831223452 76 110 10.0 12.0 0.00 0.00 0.00 40 1024.1
20260831222948 79 256 6.0 9.0 0.00 0.00 0.00 37 1024.0
20260831222444 78 240 2.0 3.0 0.00 0.00 0.00 39 1024.1
20260831221943 78 258 7.0 9.0 0.00 0.00 0.00 40 1024.3
20260831221439 79 260 6.0 10.0 0.00 0.00 0.00 40 1023.8
20260831220935 79 258 7.0 9.0 0.00 0.00 0.00 39 1023.8
20260831220430 79 286 4.0 5.0 0.00 0.00 0.00 39 1023.9
20260831215925 82 252 9.0 10.0 0.00 0.00 0.00 37 1023.9
20260831215421 82 261 7.0 10.0 0.00 0.00 0.00 36 1023.6
20260831214917 82 236 11.0 14.0 0.00 0.00 0.00 37 1023.9
20260831214414 81 223 5.0 10.0 0.00 0.00 0.00 38 1024.0
20260831213909 82 227 8.0 10.0 0.00 0.00 0.00 37 1023.8
20260831213406 82 244 8.0 12.0 0.00 0.00 0.00 37 1024.1
20260831212901 81 241 7.0 9.0 0.00 0.00 0.00 37 1024.5
20260831212357 81 211 4.0 5.0 0.00 0.00 0.00 38 1024.3
20260831211856 81 230 10.0 14.0 0.00 0.00 0.00 38 1024.5
20260831211356 80 277 4.0 5.0 0.00 0.00 0.00 38 1024.4
20260831210856 81 250 14.0 17.0 0.00 0.00 0.00 38 1024.8
20260831210351 80 233 0.0 2.0 0.00 0.00 0.00 37 1024.6
20260831205847 80 221 4.0 5.0 0.00 0.00 0.00 40 1024.8
20260831205343 82 236 15.0 21.0 0.00 0.00 0.00 38 1024.8
20260831204837 82 214 3.0 5.0 0.00 0.00 0.00 37 1025.0
20260831204336 81 257 10.0 14.0 0.00 0.00 0.00 39 1025.1
20260831203836 82 240 9.0 10.0 0.00 0.00 0.00 37 1025.1
20260831203331 82 263 4.0 5.0 0.00 0.00 0.00 37 1024.9
20260831202829 81 240 7.0 9.0 0.00 0.00 0.00 38 1025.1
20260831202324 81 262 9.0 14.0 0.00 0.00 0.00 39 1025.1
20260831201824 80 234 10.0 14.0 0.00 0.00 0.00 39 1025.3
20260831201323 78 273 5.0 7.0 0.00 0.00 0.00 40 1025.4
20260831200819 80 264 11.0 15.0 0.00 0.00 0.00 40 1025.3
20260831200314 81 273 4.0 5.0 0.00 0.00 0.00 38 1025.4
20260831195809 81 274 4.0 5.0 0.00 0.00 0.00 37 1025.5
20260831195306 80 222 7.0 9.0 0.00 0.00 0.00 39 1025.4
20260831194801 81 261 7.0 9.0 0.00 0.00 0.00 38 1026.0
20260831194256 81 247 2.0 3.0 0.00 0.00 0.00 37 1025.9
20260831193754 81 228 7.0 10.0 0.00 0.00 0.00 37 1025.8
20260831193250 80 267 3.0 7.0 0.00 0.00 0.00 38 1026.0
20260831192745 80 263 6.0 7.0 0.00 0.00 0.00 36 1025.9
20260831192240 78 216 8.0 12.0 0.00 0.00 0.00 38 1026.0
20260831191736 79 241 8.0 10.0 0.00 0.00 0.00 38 1026.0
20260831191232 77 253 11.0 15.0 0.00 0.00 0.00 39 1026.1
20260831190727 78 225 5.0 7.0 0.00 0.00 0.00 39 1026.1
20260831190226 79 271 7.0 9.0 0.00 0.00 0.00 38 1026.4
20260831185721 80 253 7.0 10.0 0.00 0.00 0.00 38 1026.4
20260831185217 79 247 7.0 9.0 0.00 0.00 0.00 38 1026.4
20260831184716 78 239 4.0 5.0 0.00 0.00 0.00 39 1026.4
20260831184212 79 280 6.0 9.0 0.00 0.00 0.00 38 1026.8
20260831183711 78 240 3.0 5.0 0.00 0.00 0.00 38 1026.5
20260831183206 79 256 3.0 5.0 0.00 0.00 0.00 38 1026.6
20260831182705 80 258 4.0 5.0 0.00 0.00 0.00 36 1026.4
20260831182200 79 273 1.0 2.0 0.00 0.00 0.00 35 1026.5
20260831181655 80 236 4.0 5.0 0.00 0.00 0.00 35 1026.8
20260831181155 81 284 4.0 5.0 0.00 0.00 0.00 35 1026.8
20260831180650 80 186 1.0 2.0 0.00 0.00 0.00 34 1026.5
20260831180146 81 217 4.0 5.0 0.00 0.00 0.00 34 1026.6
20260831175645 79 144 2.0 3.0 0.00 0.00 0.00 35 1026.6
20260831175142 81 138 4.0 9.0 0.00 0.00 0.00 34 1026.9
20260831174637 82 134 4.0 5.0 0.00 0.00 0.00 33 1026.9
20260831174132 80 148 6.0 7.0 0.00 0.00 0.00 35 1027.0
20260831173630 78 217 2.0 3.0 0.00 0.00 0.00 36 1026.9
20260831173126 80 106 3.0 7.0 0.00 0.00 0.00 35 1027.0
20260831172621 78 101 5.0 9.0 0.00 0.00 0.00 36 1026.8
20260831172120 78 50 5.0 7.0 0.00 0.00 0.00 37 1026.8
20260831171616 80 97 14.0 17.0 0.00 0.00 0.00 35 1026.8
20260831171113 81 109 2.0 3.0 0.00 0.00 0.00 35 1026.8
20260831170609 79 191 0.0 2.0 0.00 0.00 0.00 36 1026.5
20260831170106 79 94 7.0 9.0 0.00 0.00 0.00 36 1026.8
20260831165601 80 213 3.0 5.0 0.00 0.00 0.00 36 1026.6
20260831165058 79 219 3.0 5.0 0.00 0.00 0.00 37 1026.8
20260831164553 78 232 3.0 3.0 0.00 0.00 0.00 37 1026.5
20260831164049 80 71 2.0 3.0 0.00 0.00 0.00 37 1026.8
20260831163543 77 198 2.0 2.0 0.00 0.00 0.00 38 1026.9
20260831163039 77 125 5.0 7.0 0.00 0.00 0.00 38 1026.5
20260831162538 78 208 3.0 5.0 0.00 0.00 0.00 38 1026.6
20260831162036 77 45 3.0 3.0 0.00 0.00 0.00 38 1026.5
20260831161533 76 175 2.0 2.0 0.00 0.00 0.00 39 1026.6
20260831161029 77 103 6.0 7.0 0.00 0.00 0.00 40 1026.8
20260831160528 77 353 7.0 10.0 0.00 0.00 0.00 39 1026.6
20260831160023 77 94 5.0 10.0 0.00 0.00 0.00 39 1026.6
20260831155518 76 86 4.0 7.0 0.00 0.00 0.00 40 1026.5
20260831155013 75 342 2.0 3.0 0.00 0.00 0.00 40 1026.5
20260831154510 76 228 3.0 3.0 0.00 0.00 0.00 40 1026.8
20260831154009 75 54 5.0 9.0 0.00 0.00 0.00 42 1026.8
20260831153503 74 108 0.0 2.0 0.00 0.00 0.00 43 1026.6
20260831153000 73 181 3.0 5.0 0.00 0.00 0.00 43 1026.5
20260831152455 73 314 4.0 7.0 0.00 0.00 0.00 44 1026.5
20260831151950 72 49 5.0 10.0 0.00 0.00 0.00 45 1026.6
20260831151449 71 240 2.0 3.0 0.00 0.00 0.00 46 1026.6
20260831150944 71 319 2.0 3.0 0.00 0.00 0.00 47 1026.8
20260831150440 70 236 0.0 2.0 0.00 0.00 0.00 48 1027.0
20260831145939 69 176 2.0 3.0 0.00 0.00 0.00 49 1026.8
20260831145435 68 232 5.0 9.0 0.00 0.00 0.00 51 1026.6
20260831144931 68 193 2.0 3.0 0.00 0.00 0.00 53 1026.5
20260831144426 68 145 3.0 3.0 0.00 0.00 0.00 52 1026.5
20260831143921 68 250 2.0 3.0 0.00 0.00 0.00 53 1026.5
20260831143416 68 164 3.0 5.0 0.00 0.00 0.00 54 1026.4
20260831142912 68 199 3.0 3.0 0.00 0.00 0.00 53 1026.9
20260831142408 67 113 3.0 5.0 0.00 0.00 0.00 55 1026.8
20260831141902 66 79 2.0 3.0 0.00 0.00 0.00 57 1027.0
20260831141356 65 257 2.0 3.0 0.00 0.00 0.00 59 1026.5
20260831140851 64 239 2.0 3.0 0.00 0.00 0.00 61 1026.9
20260831140345 64 233 4.0 5.0 0.00 0.00 0.00 62 1026.6
20260831135844 64 224 1.0 2.0 0.00 0.00 0.00 61 1026.9
20260831135339 65 115 3.0 3.0 0.00 0.00 0.00 61 1026.5
20260831134835 66 187 2.0 3.0 0.00 0.00 0.00 59 1026.6
20260831134331 65 327 3.0 5.0 0.00 0.00 0.00 59 1026.5
20260831133831 65 344 3.0 5.0 0.00 0.00 0.00 60 1026.4
20260831133330 64 231 3.0 3.0 0.00 0.00 0.00 61 1026.3
20260831132825 64 241 1.0 2.0 0.00 0.00 0.00 61 1026.3
20260831132320 63 246 3.0 3.0 0.00 0.00 0.00 62 1026.0
20260831131815 63 279 1.0 2.0 0.00 0.00 0.00 63 1026.1
20260831131311 62 205 2.0 2.0 0.00 0.00 0.00 63 1026.0
20260831130806 62 297 2.0 3.0 0.00 0.00 0.00 63 1026.1
20260831130301 62 257 6.0 9.0 0.00 0.00 0.00 63 1025.9
20260831125800 62 307 3.0 7.0 0.00 0.00 0.00 62 1026.0
20260831125255 62 235 1.0 2.0 0.00 0.00 0.00 63 1026.1
20260831124750 62 231 3.0 5.0 0.00 0.00 0.00 63 1025.9
20260831124247 62 253 3.0 5.0 0.00 0.00 0.00 63 1026.0
20260831123746 62 226 3.0 5.0 0.00 0.00 0.00 63 1025.9
20260831123245 62 275 2.0 3.0 0.00 0.00 0.00 63 1026.0
20260831122739 62 254 3.0 7.0 0.00 0.00 0.00 64 1025.8
20260831122235 61 162 3.0 3.0 0.00 0.00 0.00 64 1025.6
20260831121734 61 122 4.0 7.0 0.00 0.00 0.00 64 1025.9
20260831121231 62 252 2.0 2.0 0.00 0.00 0.00 64 1025.6
20260831120726 62 253 2.0 3.0 0.00 0.00 0.00 64 1025.6
20260831120221 62 221 3.0 7.0 0.00 0.00 0.00 63 1025.4
20260831115717 61 157 1.0 2.0 0.00 0.00 0.00 63 1025.8
20260831115213 62 208 2.0 2.0 0.00 0.00 0.00 63 1025.5
20260831114712 62 295 2.0 3.0 0.00 0.00 0.00 63 1025.8
20260831114211 62 272 3.0 3.0 0.00 0.00 0.00 62 1025.5
20260831113707 62 21 3.0 5.0 0.00 0.00 0.00 61 1025.6
20260831113201 62 251 4.0 5.0 0.00 0.00 0.00 58 1025.6
20260831112700 63 9 0.0 2.0 0.00 0.00 0.00 55 1025.6
20260831112156 63 246 2.0 2.0 0.00 0.00 0.00 54 1025.9
20260831111651 63 224 3.0 3.0 0.00 0.00 0.00 54 1025.8
20260831111148 63 229 2.0 2.0 0.00 0.00 0.00 53 1025.8
20260831110643 64 239 2.0 3.0 0.00 0.00 0.00 53 1025.8
20260831110137 64 263 2.0 3.0 0.00 0.00 0.00 52 1026.0
20260831105637 64 239 2.0 2.0 0.00 0.00 0.00 52 1025.9
20260831105132 64 240 4.0 5.0 0.00 0.00 0.00 52 1025.8
20260831104627 64 273 4.0 5.0 0.00 0.00 0.00 53 1025.9
20260831104124 63 308 3.0 3.0 0.00 0.00 0.00 53 1025.9
20260831103619 63 245 2.0 2.0 0.00 0.00 0.00 54 1025.9
20260831103114 63 246 4.0 7.0 0.00 0.00 0.00 54 1025.9
20260831102609 63 240 3.0 3.0 0.00 0.00 0.00 55 1025.9
20260831102104 63 242 1.0 2.0 0.00 0.00 0.00 54 1025.4
20260831101603 63 234 3.0 3.0 0.00 0.00 0.00 55 1025.8
20260831101100 63 241 2.0 3.0 0.00 0.00 0.00 55 1025.5
20260831100555 63 243 1.0 2.0 0.00 0.00 0.00 55 1025.8
20260831100052 63 235 3.0 3.0 0.00 0.00 0.00 54 1025.8
20260831095549 64 257 4.0 5.0 0.00 0.00 0.00 55 1025.8
20260831095044 64 236 3.0 3.0 0.00 0.00 0.00 55 1025.6
20260831094540 64 242 2.0 2.0 0.00 0.00 0.00 54 1025.6
20260831094036 65 235 0.0 0.0 0.00 0.00 0.00 54 1025.5
20260831093531 65 264 3.0 5.0 0.00 0.00 0.00 53 1025.6
20260831093028 65 240 2.0 2.0 0.00 0.00 0.00 53 1025.5
20260831092523 65 245 1.0 2.0 0.00 0.00 0.00 53 1025.0
20260831092019 66 244 0.0 0.0 0.00 0.00 0.00 52 1025.1
20260831091513 66 247 1.0 2.0 0.00 0.00 0.00 52 1025.3
20260831091009 66 252 0.0 2.0 0.00 0.00 0.00 52 1025.1
20260831090504 67 243 0.0 0.0 0.00 0.00 0.00 51 1025.1
20260831090000 67 245 0.0 0.0 0.00 0.00 0.00 51 1025.3
20260831085455 67 246 0.0 2.0 0.00 0.00 0.00 51 1025.4
20260831084954 66 243 0.0 0.0 0.00 0.00 0.00 51 1025.1
20260831084451 67 246 1.0 2.0 0.00 0.00 0.00 51 1025.0
20260831083947 67 249 2.0 2.0 0.00 0.00 0.00 51 1025.3
20260831083441 67 251 2.0 2.0 0.00 0.00 0.00 51 1025.0
20260831082936 67 243 2.0 2.0 0.00 0.00 0.00 51 1025.0
20260831082435 66 238 3.0 3.0 0.00 0.00 0.00 51 1025.1
20260831081931 67 239 2.0 3.0 0.00 0.00 0.00 51 1025.1
20260831081426 67 246 2.0 2.0 0.00 0.00 0.00 51 1025.4
20260831080923 66 252 2.0 2.0 0.00 0.00 0.00 51 1025.0
20260831080417 67 251 2.0 2.0 0.00 0.00 0.00 50 1025.4
20260831075913 67 260 3.0 5.0 0.00 0.00 0.00 50 1025.3
20260831075408 67 238 3.0 3.0 0.00 0.00 0.00 49 1025.5
20260831074903 68 264 5.0 5.0 0.00 0.00 0.00 49 1025.3
20260831074402 68 280 5.0 7.0 0.00 0.00 0.00 49 1024.9
20260831073857 67 270 5.0 5.0 0.00 0.00 0.00 49 1025.3
20260831073356 67 264 3.0 3.0 0.00 0.00 0.00 48 1025.4
20260831072852 67 265 2.0 2.0 0.00 0.00 0.00 48 1025.8
20260831072347 67 251 2.0 2.0 0.00 0.00 0.00 48 1025.5
20260831071843 68 243 0.0 0.0 0.00 0.00 0.00 48 1025.8
20260831071342 68 242 2.0 2.0 0.00 0.00 0.00 47 1025.6
20260831070837 68 242 5.0 5.0 0.00 0.00 0.00 47 1025.3
20260831070336 68 239 3.0 3.0 0.00 0.00 0.00 46 1025.6
20260831065836 68 247 3.0 3.0 0.00 0.00 0.00 46 1025.6
20260831065333 68 275 5.0 5.0 0.00 0.00 0.00 44 1025.5
20260831064829 69 282 3.0 3.0 0.00 0.00 0.00 43 1025.5
20260831064324 70 260 1.0 2.0 0.00 0.00 0.00 42 1025.3
20260831063820 70 243 3.0 3.0 0.00 0.00 0.00 41 1025.4
20260831063320 69 242 1.0 2.0 0.00 0.00 0.00 42 1025.6
20260831062815 69 246 0.0 2.0 0.00 0.00 0.00 42 1025.4
20260831062310 69 245 1.0 2.0 0.00 0.00 0.00 43 1025.8
20260831061809 69 223 1.0 2.0 0.00 0.00 0.00 43 1025.4
20260831061303 69 241 0.0 0.0 0.00 0.00 0.00 42 1025.3
20260831060759 69 245 0.0 2.0 0.00 0.00 0.00 43 1025.0
20260831060259 69 240 2.0 2.0 0.00 0.00 0.00 42 1025.4
20260831055758 70 240 0.0 0.0 0.00 0.00 0.00 41 1025.3
20260831055253 71 243 0.0 2.0 0.00 0.00 0.00 41 1025.3
20260831054748 71 244 0.0 2.0 0.00 0.00 0.00 41 1025.3
20260831054243 71 240 0.0 0.0 0.00 0.00 0.00 41 1025.4
20260831053742 71 255 2.0 2.0 0.00 0.00 0.00 40 1025.5
20260831053241 71 245 0.0 2.0 0.00 0.00 0.00 40 1025.3
20260831052736 71 269 0.0 0.0 0.00 0.00 0.00 41 1024.9
20260831052235 71 247 0.0 0.0 0.00 0.00 0.00 41 1025.1
20260831051733 71 240 1.0 2.0 0.00 0.00 0.00 41 1025.4
20260831051232 70 241 2.0 2.0 0.00 0.00 0.00 41 1025.1
20260831050727 70 242 0.0 2.0 0.00 0.00 0.00 41 1024.9
20260831050226 70 241 0.0 2.0 0.00 0.00 0.00 41 1025.4
20260831045721 70 253 1.0 2.0 0.00 0.00 0.00 41 1025.3
20260831045215 70 245 1.0 2.0 0.00 0.00 0.00 41 1025.0
20260831044710 71 242 0.0 0.0 0.00 0.00 0.00 40 1025.0
20260831044205 72 247 1.0 2.0 0.00 0.00 0.00 40 1025.1
20260831043701 71 243 1.0 2.0 0.00 0.00 0.00 40 1024.9
20260831043156 71 244 1.0 2.0 0.00 0.00 0.00 40 1025.0
20260831042655 71 238 1.0 2.0 0.00 0.00 0.00 40 1024.9
20260831042150 71 241 0.0 0.0 0.00 0.00 0.00 40 1024.9
20260831041644 71 241 0.0 0.0 0.00 0.00 0.00 40 1025.0
20260831041139 71 243 1.0 2.0 0.00 0.00 0.00 40 1024.9
20260831040634 70 243 0.0 0.0 0.00 0.00 0.00 40 1025.1
20260831040133 70 247 0.0 2.0 0.00 0.00 0.00 41 1025.0
20260831035632 70 241 1.0 2.0 0.00 0.00 0.00 41 1025.0
20260831035126 70 243 1.0 2.0 0.00 0.00 0.00 42 1025.1
20260831034625 70 259 2.0 2.0 0.00 0.00 0.00 42 1025.0
20260831034120 70 250 2.0 2.0 0.00 0.00 0.00 42 1025.0
20260831033616 70 257 3.0 3.0 0.00 0.00 0.00 42 1025.3
20260831033111 71 238 2.0 3.0 0.00 0.00 0.00 42 1025.0
20260831032610 71 253 5.0 7.0 0.00 0.00 0.00 42 1024.8